Other Public Products
Issued by NWS Grand Forks, ND

Home | Current Version | Previous Version | Text Only | Print | Product List | Glossary On
Versions: 1 2 3 4 5 6 7 8 9 10 11 12 13 14 15 16 17 18 19 20 21 22 23 24 25 26 27 28 29 30 31 32 33 34 35 36 37 38 39 40 41 42 43 44 45 46 47 48 49 50
000
FPUS83 KFGF 020231
OPUFGF
PRAIRIE TO PINES WEATHER ROUNDUP
NATIONAL WEATHER SERVICE EASTERN NORTH DAKOTA/GRAND FORKS ND
900 PM CDT FRI AUG 01 2014

 **SATELLITE DATA USED TO AUGMENT SKY COVER AT AUTOMATED STATIONS**
 *****  WEATHER ACROSS EASTERN NORTH DAKOTA  *****

CITY           SKY/WX    TMP DP  RH WIND       PRES   REMARKS
GRAND FORKS    FAIR      74  62  66 SE5       30.04F
GRAND FORKS AF FAIR      73  64  72 SE6       30.06S
GRAND CITY NWS   N/A     72 N/A N/A MISG        N/A
BUXTON           N/A     74  62  67 CALM        N/A
DEVILS LAKE    FAIR      72  59  64 SE6       30.06R
FARGO          FAIR      73  60  63 CALM      30.05F
WAHPETON ARPT  FAIR      70  55  60 NE3       30.05F
$$

 *****  WEATHER ACROSS CENTRAL AND WESTERN NORTH DAKOTA  *****

CITY           SKY/WX    TMP DP  RH WIND       PRES   REMARKS
JAMESTOWN      FAIR      72  61  68 E7        30.05S
BISMARCK       MOCLDY    67  60  78 S10       30.05S
MINOT          FAIR      73  63  70 CALM      30.06R
MINOT AFB      FAIR      75  63  67 CALM      30.05S
GARRISON         N/A     75  65  70 CALM      30.06R
WILLISTON      CLEAR     79  55  43 E8        30.06R
DICKINSON      CLEAR     73  59  61 E8        30.06R
HETTINGER      CLEAR     76  59  55 NE9       30.05R
$$

 *****  OTHER OBSERVATIONS NORTHEAST NORTH DAKOTA  *****

CITY           SKY/WX    TMP DP  RH WIND       PRES   REMARKS
WALHALLA         N/A     68  66  94 CALM        N/A
LANGDON        FAIR      66  63  88 S5        30.07S
CAVALIER       FAIR      72  64  78 SW3       30.04S
GRAFTON        FAIR      73  63  68 S3        30.04S HAZE
CANDO          FAIR      68  64  88 CALM      30.08R
FORT TOTTEN      N/A     71  62  73 E3        29.95S
ROLLA          FAIR      66  63  88 SW3       30.09S
RUGBY          FAIR      68  64  88 E5        30.06S
 ***** THE ABOVE OBSERVATIONS ARE NON NWS ARE NOT QUALITY
        CONTROLLED AND MAY MIS-REPORT RAIN FOR SNOW...
$$

 *****  OTHER OBSERVATIONS SOUTHEAST NORTH DAKOTA *****

CITY           SKY/WX    TMP DP  RH WIND       PRES   REMARKS
COOPERSTOWN    NOT AVBL
VALLEY CITY    FAIR      72  61  68 E7        30.06S
OAKES          NOT AVBL
GWINNER        CLEAR     72  63  73 E7        30.07S
SHEYENNE NWR     N/A     72  61  67 E5        29.95
BUFFALO          N/A     69  58  68 E6          N/A
WYNDMERE       NOT AVBL
 ***** THE ABOVE OBSERVATIONS ARE NON NWS ARE NOT QUALITY
       CONTROLLED AND MAY MIS-REPORT RAIN FOR SNOW...
$$

  *****  WEATHER ACROSS NORTHERN MINNESOTA  *****

CITY           SKY/WX    TMP DP  RH WIND       PRES   REMARKS
FLAG ISLAND    FAIR      72  57  60 SW5       30.04S
WARROAD        FAIR      68  59  73 CALM      30.07R
ROSEAU         FAIR      72  63  73 SW3       30.06S
HALLOCK        FAIR      72  63  73 SE6       30.04S
THF RVR FALLS  FAIR      68  61  77 CALM      30.07S
HALSTAD          N/A     70  61  72 E2          N/A
FOSSTON        FAIR      63  52  67 CALM      30.08F
BAUDETTE       FAIR      64  54  69 CALM      30.07S
WASKISH        FAIR      61  52  72 CALM      30.07S
CROOKSTON      FAIR      70  64  83 CALM      30.06S
$$
  *****  WEATHER ACROSS CENTRAL AND WEST MINNESOTA  *****

CITY           SKY/WX    TMP DP  RH WIND       PRES   REMARKS
BEMIDJI        FAIR      64  57  78 CALM      30.08S
PARK RAPIDS    FAIR      72  56  57 N3        30.08S
WADENA         FAIR      64  59  82 CALM      30.07S
DETROIT LAKES  FAIR      70  63  78 CALM      30.08F
MOORHEAD       FAIR      72  64  78 CALM      30.06S
FERGUS FALLS   FAIR      72  54  53 CALM      30.05F
ELBOW LAKE     FAIR      71  64  77 NE3       30.06S
MORRIS MN      FAIR      72  63  73 CALM      30.05F
STAPLES        FAIR      72  57  60 N3        30.07S
WHEATON        FAIR      70  63  78 E5        30.07S
$$
  *****  WEATHER ELSEWHERE ACROSS MINNESOTA  *****

CITY           SKY/WX    TMP DP  RH WIND       PRES   REMARKS
DULUTH         FAIR      60  51  72 E5        30.08S
INTRNTL FALLS  FAIR      58  56  93 CALM      30.06S
ELY            FAIR      61  55  82 CALM      30.09R
CLOQUET        FAIR      61  54  77 E5        30.09R
BRAINERD       FAIR      70  63  78 CALM      30.07S
HIBBING        FAIR      63  58  83 MISG      30.07S
ALEXANDRIA     FAIR      74  64  71 CALM      30.09S
SAINT CLOUD    FAIR      72  61  68 CALM      30.05S
MINNEAPOLIS    FAIR      75  63  66 VRB6      30.06R
$$

  *****  WEATHER ACROSS SOUTH DAKOTA  *****

CITY           SKY/WX    TMP DP  RH WIND       PRES   REMARKS
SIOUX FALLS    FAIR      73  57  57 SE5       30.08S
BROOKINGS      NOT AVBL
WATERTOWN      FAIR      74  57  55 SE3       30.07F
HURON          CLEAR     74  59  59 SE5       30.03F
SISSETON         N/A     72  67  84 SE5       30.04F
ABERDEEN       PTCLDY    72  61  68 E6        30.04S HAZE
MITCHELL       CLEAR     73  60  63 S7        30.06S
PIERRE         CLOUDY    72  59  63 N7        30.06R THUNDER
MOBRIDGE       CLEAR     76  61  59 E12       29.99R
RAPID CITY     MOCLDY    78  48  34 W5        30.06R
$$

  *****  SOME WEATHER IN NEARBY STATES *****

CITY           SKY/WX    TMP DP  RH WIND       PRES   REMARKS
GLASGOW MT     MOCLDY    79  54  41 NE14      30.04R
GREAT FALLS MT MOCLDY    84  39  20 NE7       30.11R
CHEYENNE WY    CLEAR     70  45  40 S14       30.29R
SCOTTSBLUFF NE PTCLDY    81  53  37 E6        30.13S
OMAHA NE       FAIR      77  63  61 CALM      30.07R
DES MOINES IA  FAIR      77  59  53 E5        30.07R
DAVENPORT IA   FAIR      68  58  70 SE8       30.08F
CHICAGO IL     MOCLDY    70  58  65 NW7       30.10R
EAU CLAIRE WI  FAIR      70  65  84 CALM      30.06S
LA CROSSE WI   MOCLDY    74  61  63 E12       30.07R
$$

  *****  SOME NATIONAL WEATHER *****

CITY           SKY/WX    TMP DP  RH WIND       PRES   REMARKS
LA GUARDIA NY  CLOUDY    77  61  57 VRB5      30.20R
RALEIGH NC     DRIZZLE   65  62  90 NE8       30.12R
ATLANTA GA     MOCLDY    74  67  78 E5        30.07R
NEW ORLEANS LA MOCLDY    81  67  62 SE6       29.95F
OKLAHOMA CITY  MOCLDY    74  64  71 SE6       30.06R
ALBUQUERQUE NM MOCLDY    77  55  46 E12       30.19R
SALT LAKE CITY PTCLDY    88  42  20 NW7       30.06S
LOS ANGELES CA PTCLDY    70  63  78 W10       29.87F
BOISE ID       CLOUDY    89  52  28 SW14      29.98R
SEATTLE WA     MOSUNNY   80  54  40 NW10      29.97S
$$

*** WEATHER ACROSS MANITOBA...SASKATCHEWAN AND ONTARIO ***
                ***ONTARIO***

CITY           SKY/WX    TMP DP  RH WIND       PRES   REMARKS
GERALDTON      PTCLDY    61  55  82 CALM      30.07R
THUNDER BAY    PTCLDY    61  55  82 N3        30.09R
SIOUX LOOKOUT  MOCLDY    57  55  94 SW3       30.05
TORONTO        PTCLDY    68  61  77 CALM      30.12S
BIG TROUT LK   CLEAR     59  52  77 SE2       29.99F
PICKLE LAKE    PTCLDY    66  50  55 E5        30.03S
DRYDEN         NOT AVBL
KENORA         MOCLDY    72  52  49 S5        30.07S
$$
                *** MANITOBA***

CITY           SKY/WX    TMP DP  RH WIND       PRES   REMARKS
BRANDON        MOCLDY    73  64  73 SW5       30.05R
DAUPHIN        LGT RAIN  66  63  88 W8        30.03F
ISLAND LAKE    LGT RAIN  64  59  82 S3        29.98
PILOT MOUND      N/A     68  63  83 SW6         N/A
THE PAS        PTCLDY    66  59  77 N13       30.07R
THOMPSON       MOCLDY    64  63  94 NE9       30.02R
WINNIPEG       PTCLDY    77  61  57 SW3       30.03R
LYNN LAKE      CLEAR     64  48  55 N9        30.10R
CHURCHILL      MOCLDY    55  50  82 NE15      30.05R
GILLAM         LGT RAIN  63  63 100 N8        29.97R
$$
                ***SASKATCHEWAN***

CITY           SKY/WX    TMP DP  RH WIND       PRES   REMARKS
ESTEVAN        MOCLDY    72  61  68 SE3       30.07S
KINDERSLEY     PTCLDY    70  61  73 N8        30.17R
LLOYDMINSTER   PTCLDY    66  59  77 NE6       30.21S SMOKE
PRINCE ALBERT  PTCLDY    68  59  73 NE9       30.13R
REGINA         TSTM      61  59  94 N8        30.13S



USA.gov is the U.S. government's official web portal to all federal, state and local government web resources and services.